DW5096 Weather Reports


Display with metric or nautical units.
time (UTC)temp
F
wind
direction
speed
MPH
gust
MPH
rain 1hr
in
rain 24hr
in
rain mn
in
humidity
%
barometer
mb
20260505212552 63 335 9.0 19.0 0.00 0.10 0.10 79 997.8
20260505211051 66 289 8.0 19.0 0.00 0.10 0.10 74 997.7
20260505205552 68 193 5.0 16.0 0.00 0.10 0.10 67 996.1
20260505204054 69 253 6.0 14.0 0.00 0.10 0.10 67 995.9
20260505202551 69 157 5.0 16.0 0.00 0.10 0.10 68 996.1
20260505201051 69 184 5.0 12.0 0.00 0.10 0.10 71 996.1
20260505195551 67 207 4.0 13.0 0.00 0.10 0.10 75 996.2
20260505192552 67 199 2.0 7.0 0.00 0.10 0.10 83 996.9
20260505191052 66 221 1.0 4.0 0.00 0.10 0.10 88 997.0
20260505185552 64 220 1.0 4.0 0.00 0.10 0.10 92 997.4
20260505184049 62 225 0.0 2.0 0.00 0.10 0.10 95 997.5
20260505182549 60 225 0.0 0.0 0.02 0.10 0.10 95 997.8
20260505181049 60 226 0.0 0.0 0.03 0.10 0.10 94 998.0
20260505174051 59 226 0.0 3.0 0.05 0.10 0.10 93 998.1
20260505171050 60 225 1.0 5.0 0.07 0.07 0.07 90 998.3
20260505162545 62 225 0.0 5.0 0.02 0.02 0.02 82 998.9
20260505161046 62 216 0.0 6.0 0.00 0.00 0.00 76 998.8
20260505152545 66 214 2.0 16.0 0.00 0.00 0.00 69 998.8
20260505151043 67 148 2.0 7.0 0.00 0.00 0.00 65 998.7
20260505122540 53 11 2.0 4.0 0.00 0.10 0.00 77 1000.0
20260505121040 52 11 1.0 4.0 0.00 0.10 0.00 80 1000.1
20260505115540 51 11 0.0 3.0 0.00 0.10 0.00 82 1000.3
20260505114040 50 11 1.0 7.0 0.00 0.10 0.00 82 1000.4
20260505111038 49 10 3.0 9.0 0.00 0.10 0.00 84 1000.5
20260505101038 45 5 4.0 10.0 0.00 0.10 0.00 88 1000.2
20260505095539 44 28 4.0 9.0 0.00 0.10 0.00 88 1000.4
20260505094040 44 23 4.0 9.0 0.00 0.10 0.00 89 1000.6
20260505092538 44 24 3.0 6.0 0.00 0.10 0.00 89 1000.6
20260505084037 44 23 3.0 8.0 0.00 0.10 0.00 89 1001.0
20260505082537 44 23 3.0 6.0 0.00 0.10 0.00 88 1000.9
20260505081037 44 22 3.0 6.0 0.00 0.10 0.00 89 1001.1
20260505074034 44 22 3.0 8.0 0.00 0.10 0.00 88 1001.4
20260505072534 44 22 3.0 8.0 0.00 0.10 0.00 88 1001.3
20260505071035 45 22 3.0 9.0 0.00 0.10 0.00 88 1001.4
20260505065533 45 20 3.0 8.0 0.00 0.10 0.00 88 1001.4
20260505064036 45 19 4.0 9.0 0.00 0.10 0.00 88 1001.6
20260505062532 45 22 4.0 8.0 0.00 0.10 0.00 87 1001.7
20260505061033 45 23 4.0 9.0 0.00 0.10 0.00 87 1001.9
20260505055532 45 15 4.0 9.0 0.00 0.10 0.00 86 1002.0
20260505054033 45 11 4.0 8.0 0.00 0.10 0.00 86 1002.3
20260505052534 45 20 4.0 9.0 0.00 0.10 0.00 85 1002.4
20260505051032 46 23 4.0 8.0 0.00 0.10 0.00 85 1002.6
20260505041028 46 32 3.0 6.0 0.00 0.10 0.00 85 1003.2
20260505035530 46 32 3.0 10.0 0.00 0.10 0.10 84 1003.2
20260505034024 47 11 4.0 9.0 0.00 0.10 0.10 83 1003.2
20260505032523 47 9 2.0 7.0 0.00 0.10 0.10 83 1003.3
20260505031023 47 0 3.0 8.0 0.00 0.10 0.10 82 1003.3
20260505025524 47 346 1.0 4.0 0.00 0.10 0.10 82 1003.6
20260505022517 48 346 2.0 8.0 0.00 0.10 0.10 82 1003.7
20260505021016 48 206 2.0 4.0 0.00 0.10 0.10 82 1003.8
20260505015517 48 206 0.0 2.0 0.00 0.10 0.10 81 1003.9
20260505014014 48 206 0.0 0.0 0.00 0.10 0.10 81 1004.0
20260505012512 49 206 0.0 0.0 0.00 0.10 0.10 81 1004.1
20260505011012 48 206 0.0 1.0 0.00 0.10 0.10 85 1004.1
20260505004007 49 206 0.0 0.0 0.00 0.10 0.10 79 1004.0
20260505001003 50 206 0.0 0.0 0.00 0.10 0.10 76 1003.8
20260504235504 51 206 0.0 0.0 0.00 0.10 0.10 75 1003.8
20260504234000 51 206 0.0 0.0 0.00 0.10 0.10 75 1003.7
20260504232501 51 206 0.0 0.0 0.00 0.10 0.10 74 1003.6
20260504231003 51 206 0.0 0.0 0.00 0.10 0.10 75 1003.5
20260504223958 51 206 0.0 2.0 0.00 0.10 0.10 74 1003.3
20260504222457 51 206 0.0 3.0 0.00 0.10 0.10 74 1003.3
20260504220953 51 205 1.0 4.0 0.00 0.10 0.10 74 1003.4
20260504215454 51 194 0.0 5.0 0.00 0.10 0.10 74 1003.4
20260504213952 51 194 1.0 8.0 0.00 0.10 0.10 74 1003.5